| time (UTC) | temp F | wind direction | speed knots | gust knots | rain 1hr in | rain 24hr in | rain mn in | humidity % | barometer mb |
| 20260506193002 | 84 | 210 | 0.0 | 3.5 | 0.00 | 0.00 | 0.00 | 83 | 1009.5 |
| 20260506191601 | 84 | 236 | 0.0 | 1.7 | 0.00 | 0.00 | 0.00 | 83 | 1009.6 |
| 20260506190100 | 84 | 202 | 0.0 | 2.6 | 0.00 | 0.00 | 0.00 | 84 | 1009.8 |
| 20260506184558 | 84 | 210 | 0.0 | 2.6 | 0.00 | 0.00 | 0.00 | 84 | 1010.0 |
| 20260506184521 | 84 | 135 | 0.0 | 2.6 | 0.00 | 0.00 | 0.00 | 84 | 1010.0 |
| 20260506183107 | 84 | 261 | 0.0 | 2.6 | 0.00 | 0.00 | 0.00 | 83 | 1010.0 |
| 20260506181557 | 83 | 163 | 0.0 | 3.5 | 0.00 | 0.00 | 0.00 | 84 | 1010.4 |
| 20260506180054 | 83 | 218 | 0.0 | 0.0 | 0.00 | 0.00 | 0.00 | 85 | 1010.5 |
| 20260506174552 | 83 | 154 | 0.0 | 0.9 | 0.00 | 0.00 | 0.00 | 85 | 1010.5 |
| 20260506173058 | 83 | 218 | 0.0 | 1.7 | 0.00 | 0.00 | 0.00 | 86 | 1010.7 |
| 20260506171550 | 82 | 213 | 0.0 | 1.7 | 0.00 | 0.00 | 0.00 | 87 | 1010.9 |
| 20260506170052 | 81 | 56 | 0.0 | 2.6 | 0.00 | 0.00 | 0.00 | 90 | 1011.0 |
| 20260506164554 | 80 | 195 | 0.0 | 1.7 | 0.00 | 0.00 | 0.00 | 91 | 1010.9 |
| 20260506163041 | 80 | 212 | 0.0 | 0.9 | 0.00 | 0.00 | 0.00 | 91 | 1010.8 |
| 20260506161534 | 79 | 218 | 0.0 | 0.9 | 0.00 | 0.00 | 0.00 | 91 | 1010.8 |
| 20260506160035 | 79 | 11 | 0.0 | 1.7 | 0.00 | 0.00 | 0.00 | 92 | 1010.8 |
| 20260506154530 | 79 | 169 | 0.0 | 0.9 | 0.00 | 0.00 | 0.00 | 92 | 1010.6 |
| 20260506153027 | 79 | 90 | 0.0 | 0.0 | 0.00 | 0.00 | 0.00 | 92 | 1010.3 |
| 20260506151527 | 79 | 48 | 0.0 | 0.9 | 0.00 | 0.00 | 0.00 | 92 | 1010.2 |
| 20260506150027 | 79 | 238 | 0.0 | 0.9 | 0.00 | 0.00 | 0.00 | 92 | 1009.9 |
| 20260506144529 | 78 | 137 | 0.0 | 1.7 | 0.00 | 0.00 | 0.00 | 93 | 1009.7 |
| 20260506143025 | 79 | 131 | 0.0 | 0.9 | 0.00 | 0.00 | 0.00 | 92 | 1009.7 |
| 20260506141530 | 79 | 209 | 0.0 | 0.0 | 0.00 | 0.00 | 0.00 | 92 | 1009.9 |
| 20260506140022 | 79 | 135 | 0.0 | 2.6 | 0.00 | 0.00 | 0.00 | 92 | 1009.9 |
| 20260506134520 | 78 | 159 | 0.0 | 0.0 | 0.00 | 0.00 | 0.00 | 94 | 1009.9 |
| 20260506133017 | 77 | 71 | 0.0 | 0.9 | 0.00 | 0.00 | 0.00 | 95 | 1010.1 |
| 20260506131547 | 77 | 27 | 0.0 | 0.0 | 0.00 | 0.00 | 0.00 | 95 | 1010.1 |
| 20260506130017 | 77 | 219 | 0.0 | 0.9 | 0.00 | 0.00 | 0.00 | 95 | 1010.1 |
| 20260506124513 | 76 | 139 | 0.0 | 0.0 | 0.00 | 0.00 | 0.00 | 95 | 1009.9 |
| 20260506123014 | 76 | 139 | 0.0 | 0.0 | 0.00 | 0.00 | 0.00 | 96 | 1009.8 |
| 20260506121514 | 76 | 137 | 0.0 | 0.0 | 0.00 | 0.00 | 0.00 | 96 | 1009.7 |
| 20260506120020 | 76 | 137 | 0.0 | 0.0 | 0.00 | 0.00 | 0.00 | 96 | 1009.5 |
| 20260506114510 | 76 | 135 | 0.0 | 0.0 | 0.00 | 0.00 | 0.00 | 96 | 1009.2 |
| 20260506113010 | 76 | 167 | 0.0 | 1.7 | 0.00 | 0.00 | 0.00 | 96 | 1008.9 |
| 20260506111509 | 76 | 147 | 0.0 | 0.0 | 0.00 | 0.00 | 0.00 | 96 | 1008.8 |
| 20260506110009 | 76 | 216 | 0.0 | 0.9 | 0.00 | 0.00 | 0.00 | 96 | 1008.8 |
| 20260506104513 | 75 | 235 | 0.0 | 0.9 | 0.00 | 0.00 | 0.00 | 96 | 1008.9 |
| 20260506103025 | 75 | 326 | 0.0 | 0.0 | 0.00 | 0.00 | 0.00 | 96 | 1008.9 |
| 20260506101508 | 75 | 326 | 0.0 | 0.9 | 0.00 | 0.00 | 0.00 | 96 | 1008.9 |
| 20260506100006 | 75 | 32 | 0.0 | 0.0 | 0.00 | 0.00 | 0.00 | 95 | 1008.7 |
| 20260506094505 | 76 | 32 | 0.0 | 0.0 | 0.00 | 0.00 | 0.00 | 95 | 1008.6 |
| 20260506093003 | 76 | 32 | 0.0 | 0.9 | 0.00 | 0.00 | 0.00 | 95 | 1008.7 |
| 20260506091502 | 76 | 99 | 0.0 | 0.9 | 0.00 | 0.00 | 0.00 | 95 | 1008.7 |
| 20260506090001 | 76 | 206 | 0.0 | 0.0 | 0.00 | 0.00 | 0.00 | 95 | 1008.7 |
| 20260506084635 | 76 | 206 | 0.0 | 0.0 | 0.00 | 0.00 | 0.00 | 94 | 1009.0 |
| 20260506083059 | 76 | 207 | 0.0 | 2.6 | 0.00 | 0.00 | 0.00 | 94 | 1009.1 |
| 20260506081601 | 76 | 205 | 0.0 | 1.7 | 0.00 | 0.00 | 0.00 | 94 | 1009.1 |
| 20260506073051 | 76 | 212 | 0.0 | 1.7 | 0.00 | 0.00 | 0.00 | 93 | 1009.6 |
| 20260506071549 | 77 | 222 | 0.0 | 2.6 | 0.00 | 0.00 | 0.00 | 93 | 1009.7 |
| 20260506061544 | 77 | 227 | 0.0 | 1.7 | 0.00 | 0.00 | 0.00 | 92 | 1009.7 |
| 20260506044539 | 77 | 217 | 0.0 | 1.7 | 0.00 | 0.00 | 0.00 | 91 | 1009.8 |
| 20260506043044 | 77 | 223 | 0.0 | 2.6 | 0.00 | 0.00 | 0.00 | 91 | 1009.7 |
| 20260506041639 | 77 | 330 | 0.0 | 4.3 | 0.00 | 0.00 | 0.00 | 91 | 1009.7 |
| 20260506040038 | 77 | 170 | 0.0 | 1.7 | 0.00 | 0.00 | 0.00 | 91 | 1009.4 |
| 20260506034536 | 77 | 70 | 0.0 | 0.9 | 0.00 | 0.00 | 0.00 | 91 | 1009.5 |
| 20260506033035 | 77 | 200 | 0.0 | 1.7 | 0.00 | 0.00 | 0.00 | 91 | 1009.4 |
| 20260506031540 | 77 | 207 | 0.0 | 1.7 | 0.00 | 0.00 | 0.00 | 92 | 1009.2 |
| 20260506030035 | 77 | 152 | 0.0 | 1.7 | 0.00 | 0.00 | 0.00 | 92 | 1009.2 |
| 20260506024537 | 77 | 207 | 0.0 | 3.5 | 0.00 | 0.00 | 0.00 | 92 | 1009.1 |
| 20260506023051 | 77 | 160 | 0.0 | 0.9 | 0.00 | 0.00 | 0.00 | 92 | 1008.8 |
| 20260506021559 | 77 | 148 | 0.0 | 0.9 | 0.00 | 0.00 | 0.00 | 91 | 1008.7 |
| 20260506020032 | 77 | 55 | 0.0 | 2.6 | 0.00 | 0.00 | 0.00 | 91 | 1008.4 |
| 20260506014532 | 77 | 76 | 0.0 | 1.7 | 0.00 | 0.00 | 0.00 | 90 | 1008.2 |
| 20260506013034 | 78 | 219 | 0.0 | 1.7 | 0.00 | 0.00 | 0.00 | 90 | 1008.1 |
| 20260506011530 | 78 | 202 | 0.0 | 2.6 | 0.00 | 0.00 | 0.00 | 89 | 1007.9 |
| 20260506010032 | 78 | 101 | 0.0 | 1.7 | 0.00 | 0.00 | 0.00 | 89 | 1007.7 |
| 20260506004530 | 78 | 193 | 0.0 | 3.5 | 0.00 | 0.00 | 0.00 | 89 | 1007.5 |
| 20260506003028 | 78 | 222 | 0.0 | 4.3 | 0.00 | 0.00 | 0.00 | 88 | 1007.5 |
| 20260506001527 | 79 | 224 | 0.0 | 4.3 | 0.00 | 0.00 | 0.00 | 88 | 1007.4 |
| 20260506000027 | 79 | 147 | 0.0 | 2.6 | 0.00 | 0.00 | 0.00 | 88 | 1007.5 |
| 20260505234527 | 79 | 204 | 0.9 | 6.1 | 0.00 | 0.00 | 0.00 | 87 | 1007.4 |
| 20260505233027 | 80 | 184 | 0.0 | 4.3 | 0.00 | 0.00 | 0.00 | 86 | 1007.6 |
| 20260505231538 | 80 | 189 | 0.0 | 7.8 | 0.00 | 0.00 | 0.00 | 85 | 1007.6 |
| 20260505230026 | 80 | 113 | 0.9 | 4.3 | 0.00 | 0.00 | 0.00 | 84 | 1007.6 |
| 20260505224523 | 80 | 198 | 0.0 | 3.5 | 0.00 | 0.00 | 0.00 | 84 | 1007.5 |
| 20260505223020 | 80 | 57 | 0.9 | 7.0 | 0.00 | 0.00 | 0.00 | 84 | 1007.7 |
| 20260505221520 | 80 | 115 | 0.0 | 6.1 | 0.00 | 0.00 | 0.00 | 85 | 1007.6 |
| 20260505220023 | 80 | 146 | 0.0 | 2.6 | 0.00 | 0.00 | 0.00 | 85 | 1007.7 |
| 20260505214518 | 81 | 78 | 0.0 | 4.3 | 0.00 | 0.00 | 0.00 | 84 | 1008.0 |
| 20260505213022 | 81 | 239 | 1.7 | 5.2 | 0.00 | 0.00 | 0.00 | 84 | 1008.1 |
| 20260505211514 | 80 | 224 | 0.9 | 5.2 | 0.00 | 0.00 | 0.00 | 85 | 1008.2 |
| 20260505210015 | 81 | 212 | 0.0 | 5.2 | 0.00 | 0.00 | 0.00 | 84 | 1008.2 |
| 20260505204512 | 81 | 207 | 0.9 | 5.2 | 0.00 | 0.00 | 0.00 | 85 | 1008.6 |
| 20260505203012 | 81 | 211 | 0.0 | 3.5 | 0.00 | 0.00 | 0.00 | 85 | 1008.8 |
| 20260505201512 | 81 | 193 | 2.6 | 8.7 | 0.00 | 0.00 | 0.00 | 84 | 1009.0 |
| 20260505200010 | 80 | 209 | 0.0 | 4.3 | 0.00 | 0.00 | 0.00 | 86 | 1009.1 |
| 20260505194505 | 80 | 194 | 0.0 | 6.1 | 0.00 | 0.00 | 0.00 | 86 | 1009.2 |